KD8BMB Weather Reports


Display with metric or nautical units.
time (UTC)temp
F
wind
direction
speed
MPH
gust
MPH
rain 1hr
in
rain 24hr
in
rain mn
in
humidity
%
barometer
mb
20260508193706 62 336 1.0 3.0 0.00 0.00 0.00 33 1008.2
20260508193203 63 203 3.0 5.0 0.00 0.00 0.00 33 1008.4
20260508192659 61 222 1.0 1.0 0.00 0.00 0.00 34 1008.4
20260508192156 62 269 4.0 5.0 0.00 0.00 0.00 34 1008.4
20260508191654 62 248 3.0 7.0 0.00 0.00 0.00 33 1008.4
20260508191150 63 308 3.0 5.0 0.00 0.00 0.00 33 1008.2
20260508190648 62 284 4.0 6.0 0.00 0.00 0.00 32 1008.8
20260508190144 63 280 1.0 1.0 0.00 0.00 0.00 34 1008.7
20260508185641 62 286 1.0 2.0 0.00 0.00 0.00 33 1008.7
20260508185138 63 221 4.0 7.0 0.00 0.00 0.00 34 1008.8
20260508184635 61 281 6.0 7.0 0.00 0.00 0.00 32 1009.0
20260508184132 62 121 0.0 0.0 0.00 0.00 0.00 35 1008.9
20260508183629 62 284 0.0 1.0 0.00 0.00 0.00 33 1008.9
20260508183125 61 327 0.0 0.0 0.00 0.00 0.00 33 1009.2
20260508182621 61 232 0.0 2.0 0.00 0.00 0.00 35 1009.3
20260508182118 60 227 2.0 3.0 0.00 0.00 0.00 36 1009.2
20260508181613 61 279 6.0 9.0 0.00 0.00 0.00 31 1009.2
20260508181111 61 224 5.0 8.0 0.00 0.00 0.00 32 1009.2
20260508180608 63 292 0.0 1.0 0.00 0.00 0.00 31 1009.2
20260508180104 62 172 0.0 0.0 0.00 0.00 0.00 33 1009.5
20260508175601 61 266 0.0 0.0 0.00 0.00 0.00 33 1009.4
20260508175058 61 273 5.0 9.0 0.00 0.00 0.00 32 1009.7
20260508174555 60 247 2.0 3.0 0.00 0.00 0.00 33 1009.8
20260508174052 62 288 5.0 6.0 0.00 0.00 0.00 32 1009.7
20260508173549 61 262 0.0 0.0 0.00 0.00 0.00 31 1009.8
20260508173045 60 283 3.0 3.0 0.00 0.00 0.00 32 1010.0
20260508172543 61 218 5.0 6.0 0.00 0.00 0.00 30 1010.3
20260508172039 60 201 0.0 1.0 0.00 0.00 0.00 33 1010.1
20260508171536 59 214 0.0 1.0 0.00 0.00 0.00 33 1010.3
20260508171032 61 217 6.0 9.0 0.00 0.00 0.00 33 1010.1
20260508170529 60 36 0.0 1.0 0.00 0.00 0.00 32 1010.3
20260508170027 59 275 1.0 2.0 0.00 0.00 0.00 34 1010.4
20260508165524 60 320 0.0 1.0 0.00 0.00 0.00 32 1010.4
20260508165020 58 271 1.0 2.0 0.00 0.00 0.00 32 1010.5
20260508164517 58 219 4.0 7.0 0.00 0.00 0.00 32 1010.6
20260508164014 58 289 3.0 5.0 0.00 0.00 0.00 35 1010.6
20260508163511 58 333 2.0 5.0 0.00 0.00 0.00 34 1010.7
20260508163008 59 209 0.0 0.0 0.00 0.00 0.00 36 1010.9
20260508162505 58 49 0.0 0.0 0.00 0.00 0.00 34 1010.8
20260508162002 58 253 1.0 2.0 0.00 0.00 0.00 33 1010.9
20260508161458 57 248 1.0 2.0 0.00 0.00 0.00 36 1010.9
20260508160956 58 199 2.0 3.0 0.00 0.00 0.00 38 1011.0
20260508160454 58 288 8.0 8.0 0.00 0.00 0.00 35 1011.0
20260508155950 59 296 5.0 6.0 0.00 0.00 0.00 37 1010.8
20260508155448 57 289 0.0 0.0 0.00 0.00 0.00 40 1010.9
20260508154944 58 276 4.0 5.0 0.00 0.00 0.00 37 1011.0
20260508154442 58 287 1.0 2.0 0.00 0.00 0.00 40 1011.2
20260508153938 57 308 0.0 0.0 0.00 0.00 0.00 40 1011.3
20260508153436 59 290 1.0 1.0 0.00 0.00 0.00 39 1011.2
20260508152932 57 80 1.0 2.0 0.00 0.00 0.00 40 1011.1
20260508152428 56 282 2.0 5.0 0.00 0.00 0.00 43 1011.1
20260508151925 57 263 0.0 2.0 0.00 0.00 0.00 43 1011.3
20260508151422 56 223 0.0 0.0 0.00 0.00 0.00 44 1011.5
20260508150918 56 240 2.0 3.0 0.00 0.00 0.00 43 1011.3
20260508150415 55 260 1.0 1.0 0.00 0.00 0.00 42 1011.4
20260508145911 56 279 2.0 2.0 0.00 0.00 0.00 40 1011.6
20260508145407 55 292 6.0 8.0 0.00 0.00 0.00 42 1011.4
20260508144904 56 245 0.0 1.0 0.00 0.00 0.00 45 1011.6
20260508144402 56 309 2.0 2.0 0.00 0.00 0.00 44 1011.8
20260508143859 56 209 1.0 1.0 0.00 0.00 0.00 46 1011.4
20260508143357 56 120 0.0 0.0 0.00 0.00 0.00 44 1011.4
20260508142853 55 334 5.0 7.0 0.00 0.00 0.00 48 1011.8
20260508142350 55 321 2.0 2.0 0.00 0.00 0.00 50 1011.7
20260508141846 54 80 0.0 0.0 0.00 0.00 0.00 50 1011.6
20260508141343 53 212 0.0 0.0 0.00 0.00 0.00 52 1011.7
20260508140841 53 299 3.0 3.0 0.00 0.00 0.00 52 1011.7
20260508140338 55 237 1.0 2.0 0.00 0.00 0.00 53 1011.7
20260508135833 53 223 0.0 0.0 0.00 0.00 0.00 52 1011.9
20260508135330 52 267 1.0 2.0 0.00 0.00 0.00 57 1012.0
20260508134826 53 251 1.0 1.0 0.00 0.00 0.00 56 1011.9
20260508134323 54 275 0.0 0.0 0.00 0.00 0.00 58 1012.0
20260508133819 51 312 0.0 0.0 0.00 0.00 0.00 58 1011.7
20260508133318 51 266 1.0 2.0 0.00 0.00 0.00 59 1012.2
20260508132814 51 252 0.0 1.0 0.00 0.00 0.00 57 1012.0
20260508132312 51 260 2.0 3.0 0.00 0.00 0.00 57 1012.2
20260508131808 52 223 2.0 2.0 0.00 0.00 0.00 58 1012.2
20260508131303 52 234 0.0 0.0 0.00 0.00 0.00 60 1012.2
20260508130755 51 287 0.0 0.0 0.00 0.00 0.00 63 1012.0
20260508130252 51 174 0.0 0.0 0.00 0.00 0.00 61 1012.1
20260508125748 50 305 0.0 0.0 0.00 0.00 0.00 65 1012.1
20260508125244 50 265 0.0 0.0 0.00 0.00 0.00 67 1012.1
20260508124743 49 225 0.0 0.0 0.00 0.00 0.00 67 1011.9
20260508124239 49 212 0.0 0.0 0.00 0.00 0.00 70 1012.0
20260508123738 48 293 0.0 0.0 0.00 0.00 0.00 75 1011.8
20260508123235 47 216 0.0 0.0 0.00 0.00 0.00 76 1012.0
20260508122731 46 289 0.0 0.0 0.00 0.00 0.00 82 1011.9
20260508122228 44 272 0.0 0.0 0.00 0.00 0.00 90 1011.9
20260508121726 43 262 0.0 0.0 0.00 0.00 0.00 95 1011.9
20260508121224 42 213 0.0 0.0 0.00 0.00 0.00 99 1011.5
20260508120721 41 292 0.0 0.0 0.00 0.00 0.00 99 1011.6
20260508120219 41 292 0.0 0.0 0.00 0.00 0.00 99 1011.6
20260508115716 40 222 0.0 0.0 0.00 0.00 0.00 99 1011.7
20260508115214 40 274 0.0 0.0 0.00 0.00 0.00 99 1011.6
20260508114710 39 313 0.0 0.0 0.00 0.00 0.00 99 1011.4
20260508114207 39 293 0.0 0.0 0.00 0.00 0.00 99 1011.6
20260508113703 38 292 0.0 0.0 0.00 0.00 0.00 99 1011.4
20260508113202 38 300 0.0 0.0 0.00 0.00 0.00 99 1011.3
20260508112658 38 320 0.0 0.0 0.00 0.00 0.00 99 1011.3
20260508112155 39 325 0.0 0.0 0.00 0.00 0.00 99 1011.2
20260508111651 37 322 0.0 0.0 0.00 0.00 0.00 99 1011.4
20260508111149 37 347 0.0 0.0 0.00 0.00 0.00 99 1011.4
20260508110646 35 315 0.0 0.0 0.00 0.00 0.00 99 1011.4
20260508110143 34 315 0.0 0.0 0.00 0.00 0.00 99 1011.2
20260508105638 34 315 0.0 0.0 0.00 0.00 0.00 99 1011.3
20260508105135 34 315 0.0 0.0 0.00 0.00 0.00 99 1011.3
20260508104633 34 312 0.0 0.0 0.00 0.00 0.00 99 1011.6
20260508104129 33 312 0.0 0.0 0.00 0.00 0.00 99 1011.4
20260508103626 34 311 0.0 0.0 0.00 0.00 0.00 99 1011.4
20260508103123 34 297 0.0 0.0 0.00 0.00 0.00 99 1011.4
20260508102621 34 294 0.0 0.0 0.00 0.00 0.00 99 1011.5
20260508102119 34 294 0.0 0.0 0.00 0.00 0.00 99 1011.6
20260508101616 34 294 0.0 0.0 0.00 0.00 0.00 99 1011.4
20260508101113 35 291 0.0 0.0 0.00 0.00 0.00 99 1011.5
20260508100610 35 289 0.0 0.0 0.00 0.00 0.00 99 1011.4
20260508100108 35 299 0.0 0.0 0.00 0.00 0.00 99 1011.3
20260508095604 35 311 0.0 0.0 0.00 0.00 0.00 99 1011.4
20260508095101 35 311 0.0 0.0 0.00 0.00 0.00 99 1011.4
20260508094559 35 336 0.0 0.0 0.00 0.00 0.00 99 1011.4
20260508094055 35 311 0.0 0.0 0.00 0.00 0.00 99 1011.5
20260508093553 35 320 0.0 0.0 0.00 0.00 0.00 99 1011.4
20260508093050 36 324 0.0 0.0 0.00 0.00 0.00 99 1011.6
20260508092547 36 296 0.0 0.0 0.00 0.00 0.00 99 1011.6
20260508092046 36 295 0.0 0.0 0.00 0.00 0.00 99 1011.5
20260508091542 36 311 0.0 0.0 0.00 0.00 0.00 99 1011.7
20260508091039 36 314 0.0 0.0 0.00 0.00 0.00 99 1011.6
20260508090538 36 305 0.0 0.0 0.00 0.00 0.00 99 1011.7
20260508090034 36 306 0.0 0.0 0.00 0.00 0.00 99 1011.5
20260508085530 37 305 0.0 0.0 0.00 0.00 0.00 99 1011.7
20260508085028 37 291 0.0 0.0 0.00 0.00 0.00 99 1011.7
20260508084525 38 291 0.0 0.0 0.00 0.00 0.00 99 1011.7
20260508084022 38 286 0.0 0.0 0.00 0.00 0.00 99 1011.6
20260508083519 38 283 0.0 0.0 0.00 0.00 0.00 99 1011.5
20260508083015 38 306 0.0 0.0 0.00 0.00 0.00 99 1011.7
20260508082511 38 325 0.0 0.0 0.00 0.00 0.00 99 1011.6
20260508082009 38 332 0.0 0.0 0.00 0.00 0.00 99 1011.8
20260508081506 39 285 0.0 0.0 0.00 0.00 0.00 99 1011.6
20260508081002 39 285 0.0 0.0 0.00 0.00 0.00 99 1011.8
20260508080500 39 292 0.0 0.0 0.00 0.00 0.00 99 1011.6
20260508075957 39 307 0.0 0.0 0.00 0.00 0.00 99 1011.8
20260508075454 39 291 0.0 0.0 0.00 0.00 0.00 99 1011.7
20260508074951 39 302 0.0 0.0 0.00 0.00 0.00 99 1011.7
20260508074449 40 301 0.0 0.0 0.00 0.00 0.00 99 1011.7
20260508073945 40 316 0.0 0.0 0.00 0.00 0.00 98 1011.6
20260508073443 40 298 0.0 0.0 0.00 0.00 0.00 98 1011.6
20260508072940 41 283 0.0 0.0 0.00 0.00 0.00 98 1011.5
20260508072436 41 282 0.0 0.0 0.00 0.00 0.00 97 1011.5
20260508071934 41 288 0.0 0.0 0.00 0.00 0.00 97 1011.5
20260508071431 41 309 0.0 0.0 0.00 0.00 0.00 96 1011.5
20260508070929 41 310 0.0 0.0 0.00 0.00 0.00 96 1011.4
20260508070427 42 309 0.0 0.0 0.00 0.00 0.00 95 1011.5
20260508065924 42 284 0.0 0.0 0.00 0.00 0.00 95 1011.6
20260508065422 42 262 0.0 0.0 0.00 0.00 0.00 95 1011.7
20260508064920 42 235 0.0 0.0 0.00 0.00 0.00 95 1011.6
20260508064417 42 318 0.0 0.0 0.00 0.00 0.00 94 1011.6
20260508063915 42 313 0.0 0.0 0.00 0.00 0.00 94 1011.5
20260508063412 42 289 0.0 0.0 0.00 0.00 0.00 94 1011.3
20260508062909 42 259 0.0 0.0 0.00 0.00 0.00 93 1011.3
20260508062407 42 244 0.0 0.0 0.00 0.00 0.00 93 1011.8
20260508061904 42 279 0.0 0.0 0.00 0.00 0.00 93 1011.5
20260508061401 42 258 0.0 0.0 0.00 0.00 0.00 93 1011.9
20260508060857 42 284 0.0 0.0 0.00 0.00 0.00 93 1011.7
20260508060355 43 281 0.0 0.0 0.00 0.00 0.00 94 1011.7
20260508055850 43 281 0.0 0.0 0.00 0.00 0.00 93 1011.8
20260508055348 43 251 0.0 0.0 0.00 0.00 0.00 92 1012.0
20260508054844 43 268 0.0 0.0 0.00 0.00 0.00 90 1012.2
20260508054342 44 279 0.0 0.0 0.00 0.00 0.00 88 1011.9
20260508053838 43 84 0.0 1.0 0.00 0.00 0.00 87 1011.7
20260508053336 43 80 0.0 0.0 0.00 0.00 0.00 89 1011.9
20260508052833 43 325 0.0 0.0 0.00 0.00 0.00 91 1011.8
20260508052330 43 320 0.0 0.0 0.00 0.00 0.00 91 1011.9
20260508051826 44 331 0.0 0.0 0.00 0.00 0.00 91 1011.7
20260508051322 44 87 0.0 0.0 0.00 0.00 0.00 92 1011.9
20260508050818 44 329 0.0 0.0 0.00 0.00 0.00 92 1012.0
20260508050316 44 328 0.0 0.0 0.00 0.00 0.00 91 1011.7
20260508045811 44 19 0.0 0.0 0.00 0.00 0.00 91 1011.7
20260508045309 43 346 0.0 0.0 0.00 0.00 0.00 91 1011.9
20260508044807 43 49 0.0 0.0 0.00 0.00 0.00 92 1011.9
20260508044303 43 280 0.0 0.0 0.00 0.00 0.00 91 1012.0
20260508043759 43 281 0.0 0.0 0.00 0.00 0.00 90 1011.9
20260508043257 43 281 0.0 0.0 0.00 0.00 0.00 90 1011.9
20260508042753 44 281 0.0 0.0 0.00 0.00 0.00 90 1011.7
20260508042251 44 295 0.0 0.0 0.00 0.00 0.00 89 1011.9
20260508041747 44 284 0.0 0.0 0.00 0.00 0.00 88 1011.6
20260508041244 44 65 0.0 0.0 0.00 0.00 0.00 88 1011.5
20260508040740 44 266 0.0 0.0 0.00 0.00 0.00 88 1011.8
20260508040238 43 309 0.0 0.0 0.00 0.00 0.00 88 1012.1
20260508035735 43 305 0.0 0.0 0.00 0.00 0.00 88 1011.9
20260508035232 43 305 0.0 0.0 0.00 0.00 0.00 87 1011.8
20260508034729 44 282 0.0 0.0 0.00 0.00 0.00 87 1011.8
20260508034226 43 288 0.0 0.0 0.00 0.00 0.00 85 1011.7
20260508033723 43 309 0.0 0.0 0.00 0.00 0.00 85 1011.8
20260508033222 43 310 0.0 0.0 0.00 0.00 0.00 84 1012.0
20260508032719 43 310 0.0 0.0 0.00 0.00 0.00 83 1011.7
20260508032216 43 305 0.0 0.0 0.00 0.00 0.00 82 1011.8
20260508031712 44 286 0.0 0.0 0.00 0.00 0.00 81 1011.3
20260508031209 44 282 0.0 0.0 0.00 0.00 0.00 80 1011.5
20260508030705 44 301 0.0 0.0 0.00 0.00 0.00 79 1011.7
20260508030203 44 347 0.0 0.0 0.00 0.00 0.00 78 1011.7
20260508025659 44 299 0.0 0.0 0.00 0.00 0.00 77 1011.7
20260508025156 44 299 0.0 0.0 0.00 0.00 0.00 75 1011.9
20260508024652 45 279 0.0 0.0 0.00 0.00 0.00 73 1011.5
20260508024149 45 29 0.0 0.0 0.00 0.00 0.00 73 1011.6
20260508023645 45 358 1.0 1.0 0.00 0.00 0.00 71 1011.7
20260508023143 45 321 0.0 0.0 0.00 0.00 0.00 70 1011.9
20260508022638 45 334 1.0 1.0 0.00 0.00 0.00 70 1011.6
20260508022136 46 45 1.0 1.0 0.00 0.00 0.00 69 1011.7
20260508021632 46 69 0.0 1.0 0.00 0.00 0.00 68 1011.7
20260508021127 47 4 0.0 0.0 0.00 0.00 0.00 62 1012.1
20260508020626 47 273 1.0 1.0 0.00 0.00 0.00 60 1012.1
20260508020123 46 295 2.0 2.0 0.00 0.00 0.00 59 1012.0
20260508015620 46 324 0.0 0.0 0.00 0.00 0.00 60 1011.7
20260508015117 46 321 3.0 3.0 0.00 0.00 0.00 61 1011.5
20260508014613 47 324 0.0 0.0 0.00 0.00 0.00 61 1011.2
20260508014110 47 303 0.0 0.0 0.00 0.00 0.00 60 1011.3
20260508013606 48 299 0.0 0.0 0.00 0.00 0.00 59 1011.2
20260508013103 48 296 0.0 0.0 0.00 0.00 0.00 59 1011.2
20260508012601 48 264 0.0 0.0 0.00 0.00 0.00 58 1011.1
20260508012058 48 305 1.0 2.0 0.00 0.00 0.00 57 1011.3
20260508011556 49 314 2.0 2.0 0.00 0.00 0.00 56 1011.1
20260508011053 49 311 2.0 2.0 0.00 0.00 0.00 55 1011.0
20260508010549 49 309 4.0 5.0 0.00 0.00 0.00 55 1010.9
20260508010047 49 296 0.0 0.0 0.00 0.00 0.00 54 1010.8
20260508005543 49 347 0.0 0.0 0.00 0.00 0.00 54 1011.0
20260508005040 49 313 1.0 2.0 0.00 0.00 0.00 54 1011.0
20260508004536 49 273 2.0 3.0 0.00 0.00 0.00 54 1010.9
20260508004033 49 302 0.0 0.0 0.00 0.00 0.00 54 1011.1
20260508003530 50 279 1.0 1.0 0.00 0.00 0.00 54 1010.9
20260508003027 50 244 5.0 6.0 0.00 0.00 0.00 52 1010.6
20260508002523 50 186 2.0 2.0 0.00 0.00 0.00 53 1010.9
20260508002021 50 254 0.0 0.0 0.00 0.00 0.00 53 1010.9
20260508001516 50 201 7.0 9.0 0.00 0.00 0.00 51 1010.8
20260508001013 50 169 3.0 6.0 0.00 0.00 0.00 51 1010.8
20260508000509 51 358 1.0 2.0 0.00 0.00 0.00 50 1010.9
20260508000006 51 289 3.0 3.0 0.00 0.00 0.00 50 1010.9
20260507235503 51 217 3.0 5.0 0.00 0.00 0.00 49 1010.6
20260507235000 51 322 2.0 3.0 0.00 0.00 0.00 49 1010.6
20260507234457 52 317 8.0 14.0 0.00 0.00 0.00 48 1010.6
20260507233953 52 293 3.0 5.0 0.00 0.00 0.00 47 1010.7
20260507233450 52 290 3.0 3.0 0.00 0.00 0.00 47 1010.6
20260507232949 52 290 5.0 7.0 0.00 0.00 0.00 46 1010.6
20260507232444 52 278 3.0 3.0 0.00 0.00 0.00 46 1010.6
20260507231942 53 227 7.0 10.0 0.00 0.00 0.00 45 1010.6
20260507231438 53 322 5.0 6.0 0.00 0.00 0.00 45 1010.5
20260507230935 53 234 2.0 2.0 0.00 0.00 0.00 46 1010.5
20260507230432 53 312 2.0 2.0 0.00 0.00 0.00 46 1010.6
20260507225933 52 302 6.0 11.0 0.00 0.00 0.00 45 1010.7
20260507225429 53 261 1.0 2.0 0.00 0.00 0.00 45 1010.6
20260507224925 53 289 2.0 2.0 0.00 0.00 0.00 46 1010.7
20260507224421 53 268 4.0 6.0 0.00 0.00 0.00 46 1010.7
20260507223918 53 311 2.0 3.0 0.00 0.00 0.00 46 1010.8
20260507223414 53 261 7.0 10.0 0.00 0.00 0.00 45 1010.8
20260507222911 53 287 2.0 3.0 0.00 0.00 0.00 45 1010.8
20260507222408 54 286 6.0 7.0 0.00 0.00 0.00 45 1010.6
20260507221905 54 21 0.0 0.0 0.00 0.00 0.00 45 1010.6
20260507221401 53 271 7.0 10.0 0.00 0.00 0.00 46 1010.8
20260507220857 53 249 5.0 6.0 0.00 0.00 0.00 46 1011.0
20260507220355 52 221 3.0 5.0 0.00 0.00 0.00 47 1010.8
20260507215852 53 284 4.0 6.0 0.00 0.00 0.00 46 1010.9
20260507215349 54 220 5.0 6.0 0.00 0.00 0.00 45 1010.8
20260507214846 53 283 9.0 11.0 0.00 0.00 0.00 46 1010.8
20260507214343 53 231 5.0 6.0 0.00 0.00 0.00 46 1010.8
20260507213838 53 234 4.0 6.0 0.00 0.00 0.00 47 1010.9
20260507213335 52 282 3.0 3.0 0.00 0.00 0.00 47 1010.8
20260507212832 53 287 8.0 10.0 0.00 0.00 0.00 46 1010.8
20260507212328 53 188 5.0 7.0 0.00 0.00 0.00 46 1010.7
20260507211824 53 229 7.0 11.0 0.00 0.00 0.00 46 1011.0
20260507211321 54 241 8.0 11.0 0.00 0.00 0.00 45 1010.9
20260507210818 53 245 1.0 1.0 0.00 0.00 0.00 46 1010.8
20260507210315 52 268 1.0 2.0 0.00 0.00 0.00 46 1010.9
20260507205811 53 246 2.0 2.0 0.00 0.00 0.00 46 1010.8
20260507205309 53 250 3.0 5.0 0.00 0.00 0.00 45 1010.8
20260507204804 53 239 2.0 3.0 0.00 0.00 0.00 45 1011.1
20260507204302 54 283 6.0 9.0 0.00 0.00 0.00 43 1011.0
20260507203800 53 320 7.0 9.0 0.00 0.00 0.00 45 1010.9
20260507203258 52 276 1.0 2.0 0.00 0.00 0.00 46 1010.8
20260507202754 52 243 2.0 2.0 0.00 0.00 0.00 47 1011.0
20260507202249 52 272 3.0 7.0 0.00 0.00 0.00 45 1011.1
20260507201744 52 249 8.0 10.0 0.00 0.00 0.00 44 1011.1
20260507201241 54 229 4.0 5.0 0.00 0.00 0.00 44 1011.1
20260507200738 55 317 6.0 11.0 0.00 0.00 0.00 43 1011.3
20260507200234 53 293 3.0 6.0 0.00 0.00 0.00 44 1011.2
20260507195730 54 216 5.0 9.0 0.00 0.00 0.00 44 1011.2
20260507195228 54 331 3.0 5.0 0.00 0.00 0.00 44 1011.2
20260507194725 54 344 3.0 5.0 0.00 0.00 0.00 44 1011.4
20260507194221 55 356 0.0 1.0 0.00 0.00 0.00 42 1011.3